GW2644 Weather Reports


Display with metric or nautical units.
time (UTC)temp
F
wind
direction
speed
MPH
gust
MPH
rain 1hr
in
rain 24hr
in
rain mn
in
humidity
%
barometer
mb
20240619000624 75 144 7.0 9.0 0.00 0.00 0.00 62 1010.8
20240619000123 76 192 7.0 7.0 0.00 0.00 0.00 60 1010.8
20240618235622 75 218 0.0 11.0 0.00 0.00 0.00 62 1011.1
20240618235122 76 180 4.0 10.0 0.00 0.00 0.00 59 1011.0
20240618234622 76 117 0.0 6.0 0.00 0.00 0.00 58 1010.9
20240618234121 76 160 3.0 6.0 0.00 0.00 0.00 59 1011.0
20240618233620 77 126 0.0 8.0 0.00 0.00 0.00 60 1010.8
20240618233120 76 183 0.0 8.0 0.00 0.00 0.00 60 1010.9
20240618232618 77 324 2.0 3.0 0.00 0.00 0.00 57 1010.9
20240618232117 76 194 3.0 7.0 0.00 0.00 0.00 59 1010.9
20240618231617 75 110 3.0 8.0 0.00 0.00 0.00 60 1011.2
20240618231117 76 140 5.0 8.0 0.00 0.00 0.00 59 1011.0
20240618230617 77 150 3.0 10.0 0.00 0.00 0.00 59 1011.0
20240618230115 78 126 1.0 3.0 0.00 0.00 0.00 56 1011.1
20240618225614 77 199 3.0 11.0 0.00 0.00 0.00 59 1011.0
20240618225114 78 186 3.0 5.0 0.00 0.00 0.00 56 1010.8
20240618224613 79 106 0.0 7.0 0.00 0.00 0.00 57 1010.7
20240618224112 78 345 4.0 4.0 0.00 0.00 0.00 55 1010.9
20240618223613 79 292 3.0 5.0 0.00 0.00 0.00 55 1010.8
20240618223113 78 3 0.0 4.0 0.00 0.00 0.00 57 1010.8
20240618222612 77 187 6.0 8.0 0.00 0.00 0.00 59 1010.8
20240618222016 78 138 3.0 7.0 0.00 0.00 0.00 58 1011.1
20240618221514 77 350 2.0 4.0 0.00 0.00 0.00 58 1010.9
20240618221012 77 111 5.0 7.0 0.00 0.00 0.00 58 1011.2
20240618220511 78 331 1.0 5.0 0.00 0.00 0.00 58 1011.1
20240618220010 77 118 4.0 7.0 0.00 0.00 0.00 58 1011.2
20240618215508 78 334 2.0 4.0 0.00 0.00 0.00 56 1011.1
20240618215007 78 105 0.0 7.0 0.00 0.00 0.00 57 1011.1
20240618214505 77 303 2.0 5.0 0.00 0.00 0.00 59 1011.0
20240618214003 76 198 1.0 7.0 0.00 0.00 0.00 59 1011.3
20240618213502 77 354 4.0 6.0 0.00 0.00 0.00 59 1011.3
20240618212958 76 166 2.0 8.0 0.00 0.00 0.00 60 1011.4
20240618212456 77 81 0.0 10.0 0.00 0.00 0.00 59 1011.1
20240618211941 75 137 5.0 10.0 0.00 0.00 0.00 60 1011.1
20240618211439 77 142 5.0 9.0 0.00 0.00 0.00 58 1011.1
20240618210938 77 170 2.0 7.0 0.00 0.00 0.00 59 1011.3
20240618210438 76 129 2.0 8.0 0.00 0.00 0.00 60 1011.3
20240618205934 76 139 6.0 13.0 0.00 0.00 0.00 61 1011.3
20240618205432 75 115 5.0 8.0 0.00 0.00 0.00 61 1011.2
20240618204932 75 123 3.0 6.0 0.00 0.00 0.00 61 1011.5
20240618204431 77 116 3.0 12.0 0.00 0.00 0.00 59 1011.3
20240618203927 76 200 4.0 8.0 0.00 0.00 0.00 60 1011.4
20240618203425 77 114 1.0 6.0 0.00 0.00 0.00 59 1011.6
20240618202924 77 90 2.0 7.0 0.00 0.00 0.00 59 1011.3
20240618202423 76 315 3.0 7.0 0.00 0.00 0.00 61 1011.3
20240618201922 78 75 3.0 3.0 0.00 0.00 0.00 57 1011.1
20240618201419 77 59 0.0 5.0 0.00 0.00 0.00 59 1011.4
20240618200919 77 312 4.0 4.0 0.00 0.00 0.00 58 1011.5
20240618200419 75 292 4.0 5.0 0.00 0.00 0.00 59 1011.3
20240618195918 77 315 2.0 5.0 0.00 0.00 0.00 57 1011.5
20240618195417 77 346 0.0 5.0 0.00 0.00 0.00 59 1011.5
20240618194916 75 112 2.0 4.0 0.00 0.00 0.00 59 1011.8
20240618194413 74 262 1.0 4.0 0.00 0.00 0.00 60 1011.6
20240618193912 75 300 2.0 3.0 0.00 0.00 0.00 59 1011.7
20240618193411 75 337 1.0 6.0 0.00 0.00 0.00 59 1011.7
20240618192909 76 111 4.0 4.0 0.00 0.00 0.00 59 1011.6
20240618192409 76 0 0.0 3.0 0.00 0.00 0.00 57 1011.7
20240618191907 74 180 1.0 3.0 0.00 0.00 0.00 59 1011.6
20240618191405 74 352 0.0 3.0 0.00 0.00 0.00 61 1011.8
20240618190904 74 292 3.0 4.0 0.00 0.00 0.00 60 1011.8
20240618190404 74 117 1.0 3.0 0.00 0.00 0.00 59 1011.7
20240618185902 74 90 0.0 3.0 0.00 0.00 0.00 62 1011.9
20240618185400 74 108 3.0 5.0 0.00 0.00 0.00 61 1011.7
20240618184859 73 103 0.0 3.0 0.00 0.00 0.00 58 1011.6
20240618184357 73 297 1.0 4.0 0.00 0.00 0.00 61 1011.8
20240618183857 72 248 0.0 2.0 0.00 0.00 0.00 62 1011.8
20240618183356 71 270 1.0 3.0 0.00 0.00 0.00 63 1011.7
20240618182855 70 262 0.0 3.0 0.00 0.00 0.00 65 1012.0
20240618182353 70 99 0.0 3.0 0.00 0.00 0.00 66 1011.8
20240618181852 69 270 1.0 3.0 0.00 0.00 0.00 66 1012.0
20240618181351 71 293 2.0 3.0 0.00 0.00 0.00 62 1011.9
20240618180850 69 198 0.0 2.0 0.00 0.00 0.00 67 1011.9
20240618180347 70 186 1.0 2.0 0.00 0.00 0.00 63 1012.1
20240618175847 70 180 2.0 2.0 0.00 0.00 0.00 64 1011.7
20240618175345 71 172 0.0 3.0 0.00 0.00 0.00 64 1011.9
20240618174843 71 75 1.0 3.0 0.00 0.00 0.00 65 1011.7
20240618174342 69 341 0.0 2.0 0.00 0.00 0.00 67 1011.9
20240618173842 67 204 0.0 3.0 0.00 0.00 0.00 69 1011.9
20240618173340 69 216 2.0 3.0 0.00 0.00 0.00 68 1011.8
20240618172838 68 180 0.0 2.0 0.00 0.00 0.00 70 1012.0
20240618172337 68 127 0.0 2.0 0.00 0.00 0.00 71 1011.8
20240618171835 69 180 1.0 6.0 0.00 0.00 0.00 70 1012.1
20240618171333 69 169 0.0 2.0 0.00 0.00 0.00 70 1012.2
20240618170832 68 174 0.0 3.0 0.00 0.00 0.00 71 1011.9
20240618170330 69 160 0.0 2.0 0.00 0.00 0.00 71 1012.0
20240618165828 68 180 0.0 2.0 0.00 0.00 0.00 71 1011.8
20240618165327 68 208 0.0 2.0 0.00 0.00 0.00 72 1011.8
20240618164826 68 345 2.0 3.0 0.00 0.00 0.00 72 1011.9
20240618164323 67 131 0.0 3.0 0.00 0.00 0.00 73 1011.8
20240618163822 67 172 0.0 2.0 0.00 0.00 0.00 73 1012.0
20240618163321 67 148 0.0 3.0 0.00 0.00 0.00 73 1012.0
20240618162819 67 151 0.0 5.0 0.00 0.00 0.00 74 1011.9
20240618162318 66 103 1.0 2.0 0.00 0.00 0.00 75 1011.9
20240618161817 66 180 2.0 3.0 0.00 0.00 0.00 75 1012.1
20240618161306 66 165 0.0 3.0 0.00 0.00 0.00 76 1012.0
20240618160804 67 188 0.0 2.0 0.00 0.00 0.00 75 1012.1
20240618160304 67 157 0.0 3.0 0.00 0.00 0.00 76 1012.2
20240618155803 67 277 0.0 0.0 0.00 0.00 0.00 75 1012.1
20240618155306 66 180 0.0 2.0 0.00 0.00 0.00 76 1011.9
20240618154801 66 180 0.0 2.0 0.00 0.00 0.00 76 1011.9
20240618154259 66 166 1.0 2.0 0.00 0.00 0.00 77 1011.8
20240618153759 66 209 0.0 3.0 0.00 0.00 0.00 77 1012.0
20240618153258 66 117 0.0 3.0 0.00 0.00 0.00 77 1011.7
20240618152756 66 206 0.0 3.0 0.00 0.00 0.00 77 1011.6
20240618152255 65 200 1.0 2.0 0.00 0.00 0.00 77 1011.7
20240618151753 66 132 2.0 4.0 0.00 0.00 0.00 78 1011.7
20240618151251 65 120 0.0 1.0 0.00 0.00 0.00 79 1011.4
20240618150750 65 191 2.0 2.0 0.00 0.00 0.00 79 1011.6
20240618150249 65 180 2.0 3.0 0.00 0.00 0.00 79 1011.8
20240618145749 65 96 1.0 3.0 0.00 0.00 0.00 80 1011.5
20240618145247 65 107 0.0 2.0 0.00 0.00 0.00 79 1011.5
20240618144745 64 117 0.0 4.0 0.00 0.00 0.00 79 1011.5
20240618144244 64 162 3.0 3.0 0.00 0.00 0.00 80 1011.6
20240618143744 64 110 0.0 3.0 0.00 0.00 0.00 80 1011.4
20240618143243 65 158 3.0 3.0 0.00 0.00 0.00 80 1011.5
20240618142741 64 154 2.0 2.0 0.00 0.00 0.00 80 1011.3
20240618142240 64 139 2.0 3.0 0.00 0.00 0.00 81 1011.4
20240618141738 64 212 0.0 2.0 0.00 0.00 0.00 81 1011.1
20240618141236 64 132 0.0 2.0 0.00 0.00 0.00 81 1011.1
20240618140736 64 166 0.0 3.0 0.00 0.00 0.00 81 1011.1
20240618140235 64 180 1.0 3.0 0.00 0.00 0.00 82 1011.0
20240618135735 64 186 3.0 4.0 0.00 0.00 0.00 82 1011.2
20240618135233 64 90 0.0 1.0 0.00 0.00 0.00 82 1011.2
20240618134731 64 151 1.0 4.0 0.00 0.00 0.00 83 1011.3
20240618134226 64 194 0.0 3.0 0.00 0.00 0.00 83 1011.0
20240618133726 64 111 0.0 2.0 0.00 0.00 0.00 83 1011.1
20240618133225 64 99 0.0 3.0 0.00 0.00 0.00 83 1011.0
20240618132724 64 90 0.0 3.0 0.00 0.00 0.00 83 1011.0
20240618132223 64 111 1.0 2.0 0.00 0.00 0.00 83 1011.2
20240618131722 63 99 0.0 0.0 0.00 0.00 0.00 83 1010.9
20240618131220 63 99 0.0 0.0 0.00 0.00 0.00 83 1010.8
20240618130719 63 164 2.0 3.0 0.00 0.00 0.00 83 1010.8
20240618130217 63 131 2.0 3.0 0.00 0.00 0.00 83 1010.8
20240618125716 63 154 0.0 2.0 0.00 0.00 0.00 84 1010.9
20240618125214 63 270 0.0 2.0 0.00 0.00 0.00 84 1010.7
20240618124712 63 172 0.0 2.0 0.00 0.00 0.00 84 1010.8
20240618124212 63 180 0.0 0.0 0.00 0.00 0.00 84 1010.8
20240618123710 63 192 0.0 2.0 0.00 0.00 0.00 84 1010.7
20240618123209 63 106 0.0 1.0 0.00 0.00 0.00 84 1010.6
20240618122708 63 177 0.0 2.0 0.00 0.00 0.00 84 1010.5
20240618122206 63 157 0.0 1.0 0.00 0.00 0.00 84 1010.5
20240618121705 63 162 0.0 2.0 0.00 0.00 0.00 84 1010.5
20240618121203 63 106 0.0 3.0 0.00 0.00 0.00 84 1010.5
20240618120703 63 174 0.0 3.0 0.00 0.00 0.00 84 1010.2
20240618120202 63 198 0.0 2.0 0.00 0.00 0.00 84 1010.2
20240618115702 63 159 0.0 6.0 0.00 0.00 0.00 84 1009.9
20240618115159 63 118 3.0 3.0 0.00 0.00 0.00 84 1010.1
20240618114658 63 101 3.0 3.0 0.00 0.00 0.00 84 1009.9
20240618114157 63 101 0.0 2.0 0.00 0.00 0.00 85 1010.1
20240618113656 63 103 0.0 3.0 0.00 0.00 0.00 85 1009.9
20240618113155 63 112 0.0 2.0 0.00 0.00 0.00 85 1009.8
20240618112655 63 163 2.0 2.0 0.00 0.00 0.00 85 1010.0
20240618112154 63 126 1.0 2.0 0.00 0.00 0.00 85 1009.7
20240618111652 63 114 0.0 4.0 0.00 0.00 0.00 85 1009.7
20240618111151 63 180 0.0 4.0 0.00 0.00 0.00 85 1009.9
20240618110648 63 117 2.0 5.0 0.00 0.00 0.00 85 1009.7
20240618110148 63 117 0.0 3.0 0.00 0.00 0.00 85 1009.7
20240618105645 63 128 2.0 3.0 0.00 0.00 0.00 85 1009.6
20240618105144 63 184 2.0 3.0 0.00 0.00 0.00 85 1009.5
20240618104643 63 114 0.0 4.0 0.00 0.00 0.00 85 1009.6
20240618104143 63 180 0.0 2.0 0.00 0.00 0.00 85 1009.6
20240618103642 63 105 0.0 2.0 0.00 0.00 0.00 85 1009.7
20240618103141 63 130 0.0 4.0 0.00 0.00 0.00 85 1009.4
20240618102640 63 198 2.0 3.0 0.00 0.00 0.00 86 1009.8
20240618102139 63 119 2.0 4.0 0.00 0.00 0.00 86 1009.6
20240618101638 63 114 0.0 2.0 0.00 0.00 0.00 86 1009.5
20240618101136 63 180 0.0 2.0 0.00 0.00 0.00 86 1009.4
20240618100636 63 160 0.0 2.0 0.00 0.00 0.00 86 1009.3
20240618100133 63 114 0.0 4.0 0.00 0.00 0.00 86 1009.6
20240618095632 63 131 2.0 4.0 0.00 0.00 0.00 86 1009.6
20240618095132 63 210 0.0 4.0 0.00 0.00 0.00 86 1009.4
20240618094631 63 188 3.0 4.0 0.00 0.00 0.00 86 1009.5
20240618094130 63 206 0.0 3.0 0.00 0.00 0.00 86 1009.4
20240618093629 63 119 0.0 2.0 0.00 0.00 0.00 86 1009.5
20240618093127 63 213 0.0 3.0 0.00 0.00 0.00 86 1009.5
20240618092628 63 114 0.0 2.0 0.00 0.00 0.00 86 1009.7
20240618092126 63 112 0.0 2.0 0.00 0.00 0.00 86 1009.5
20240618091625 63 111 0.0 2.0 0.00 0.00 0.00 86 1009.7
20240618091124 63 102 0.0 2.0 0.00 0.00 0.00 86 1009.6
20240618090623 63 198 2.0 4.0 0.00 0.00 0.00 86 1009.4
20240618090123 63 180 0.0 3.0 0.00 0.00 0.00 86 1009.5
20240618085621 63 201 2.0 3.0 0.00 0.00 0.00 86 1009.5
20240618085120 63 182 3.0 3.0 0.00 0.00 0.00 87 1009.8
20240618084619 63 114 2.0 4.0 0.00 0.00 0.00 87 1009.7
20240618084117 63 169 3.0 5.0 0.00 0.00 0.00 87 1009.7
20240618083616 64 126 1.0 2.0 0.00 0.00 0.00 87 1009.7
20240618083114 64 107 0.0 2.0 0.00 0.00 0.00 87 1009.7
20240618082613 63 194 0.0 1.0 0.00 0.00 0.00 87 1009.6
20240618082111 64 192 0.0 0.0 0.00 0.00 0.00 87 1009.6
20240618081610 64 200 0.0 0.0 0.00 0.00 0.00 87 1009.6
20240618081108 64 188 0.0 0.0 0.00 0.00 0.00 87 1009.7
20240618080608 63 200 0.0 3.0 0.00 0.00 0.00 88 1009.9
20240618080106 63 203 1.0 3.0 0.00 0.00 0.00 88 1010.0
20240618075606 63 173 0.0 1.0 0.00 0.00 0.00 88 1009.9
20240618075104 63 209 0.0 1.0 0.00 0.00 0.00 89 1010.1
20240618074602 63 215 0.0 1.0 0.00 0.00 0.00 89 1010.1
20240618074101 63 191 0.0 2.0 0.00 0.00 0.00 89 1010.0
20240618073600 62 192 0.0 1.0 0.00 0.00 0.00 89 1010.0
20240618073058 62 209 0.0 0.0 0.00 0.00 0.00 88 1010.0
20240618072555 63 209 0.0 0.0 0.00 0.00 0.00 88 1010.0
20240618072054 63 209 0.0 1.0 0.00 0.00 0.00 88 1010.1
20240618071553 63 270 0.0 0.0 0.00 0.00 0.00 88 1009.9
20240618071052 63 194 0.0 1.0 0.00 0.00 0.00 88 1010.3
20240618070551 63 195 0.0 0.0 0.00 0.00 0.00 88 1010.0
20240618070050 63 200 1.0 1.0 0.00 0.00 0.00 88 1009.9
20240618065548 63 90 0.0 0.0 0.00 0.00 0.00 87 1010.3
20240618065047 63 90 0.0 0.0 0.00 0.00 0.00 87 1009.9
20240618064545 63 114 0.0 0.0 0.00 0.00 0.00 87 1010.0
20240618064043 63 127 2.0 2.0 0.00 0.00 0.00 87 1010.2
20240618063542 64 220 0.0 2.0 0.00 0.00 0.00 87 1009.9
20240618063042 64 195 0.0 0.0 0.00 0.00 0.00 86 1010.2
20240618062541 64 206 0.0 0.0 0.00 0.00 0.00 86 1010.3
20240618062040 64 180 2.0 2.0 0.00 0.00 0.00 86 1010.3
20240618061539 64 208 0.0 2.0 0.00 0.00 0.00 86 1010.3
20240618061037 64 145 0.0 1.0 0.00 0.00 0.00 85 1010.5
20240618060535 64 188 0.0 1.0 0.00 0.00 0.00 85 1010.2
20240618060035 64 106 1.0 5.0 0.00 0.00 0.00 86 1010.2
20240618055532 64 126 0.0 1.0 0.00 0.00 0.00 86 1010.0
20240618055030 64 184 2.0 4.0 0.00 0.00 0.00 86 1010.0
20240618054529 64 192 0.0 2.0 0.00 0.00 0.00 86 1010.1
20240618054028 64 117 0.0 1.0 0.00 0.00 0.00 86 1009.9
20240618053528 65 192 0.0 3.0 0.00 0.00 0.00 85 1010.1
20240618053028 65 114 0.0 2.0 0.00 0.00 0.00 85 1010.0
20240618052527 65 208 0.0 3.0 0.00 0.00 0.00 86 1009.8
20240618052025 65 185 0.0 4.0 0.00 0.00 0.00 85 1010.1
20240618051525 65 90 0.0 3.0 0.00 0.00 0.00 85 1010.1
20240618051023 65 172 0.0 3.0 0.00 0.00 0.00 85 1009.9
20240618050522 65 154 1.0 4.0 0.00 0.00 0.00 85 1010.3
20240618050022 65 197 3.0 3.0 0.00 0.00 0.00 85 1010.1
20240618045521 65 154 2.0 3.0 0.00 0.00 0.00 85 1010.0
20240618045020 65 97 1.0 2.0 0.00 0.00 0.00 85 1009.9
20240618044520 65 180 1.0 4.0 0.00 0.00 0.00 85 1009.9
20240618044020 65 96 0.0 4.0 0.00 0.00 0.00 85 1010.0
20240618043519 65 138 3.0 3.0 0.00 0.00 0.00 85 1009.6
20240618043017 65 206 0.0 5.0 0.00 0.00 0.00 85 1010.0
20240618042515 66 145 1.0 3.0 0.00 0.00 0.00 84 1009.9
20240618042014 66 202 0.0 5.0 0.00 0.00 0.00 84 1009.7
20240618041512 66 98 1.0 5.0 0.00 0.00 0.00 84 1009.6
20240618041011 66 157 1.0 4.0 0.00 0.00 0.00 84 1009.6
20240618040509 66 105 1.0 5.0 0.00 0.00 0.00 84 1009.8
20240618040009 66 106 0.0 5.0 0.00 0.00 0.00 84 1009.6
20240618035507 66 142 2.0 3.0 0.00 0.00 0.00 83 1009.5
20240618035005 66 105 1.0 3.0 0.00 0.00 0.00 83 1009.6
20240618034504 66 184 0.0 5.0 0.00 0.00 0.00 83 1009.7
20240618034002 67 151 0.0 3.0 0.00 0.00 0.00 82 1009.7
20240618033500 67 328 2.0 3.0 0.00 0.00 0.00 82 1009.8
20240618032956 67 157 0.0 4.0 0.00 0.00 0.00 82 1009.8
20240618032454 67 203 0.0 3.0 0.00 0.00 0.00 82 1009.5
20240618031953 67 175 2.0 4.0 0.00 0.00 0.00 81 1009.6
20240618031451 67 191 3.0 4.0 0.00 0.00 0.00 81 1009.4
20240618030950 67 174 1.0 4.0 0.00 0.00 0.00 80 1009.7
20240618030450 67 161 2.0 4.0 0.00 0.00 0.00 79 1009.5
20240618025948 68 197 3.0 4.0 0.00 0.00 0.00 79 1009.6
20240618025447 68 196 4.0 4.0 0.00 0.00 0.00 79 1009.5
20240618024945 68 199 0.0 4.0 0.00 0.00 0.00 79 1009.2
20240618024443 68 143 2.0 4.0 0.00 0.00 0.00 78 1009.4
20240618023943 68 148 0.0 3.0 0.00 0.00 0.00 78 1009.5
20240618023441 69 135 0.0 6.0 0.00 0.00 0.00 77 1009.2
20240618022939 69 177 5.0 5.0 0.00 0.00 0.00 76 1009.6
20240618022437 69 110 2.0 4.0 0.00 0.00 0.00 76 1009.1
20240618021936 69 176 2.0 8.0 0.00 0.00 0.00 76 1009.2
20240618021433 70 127 3.0 4.0 0.00 0.00 0.00 75 1009.1
20240618020932 71 276 0.0 4.0 0.00 0.00 0.00 74 1009.1
20240618020431 72 324 0.0 2.0 0.00 0.00 0.00 72 1009.4
20240618015929 71 352 0.0 5.0 0.00 0.00 0.00 73 1009.5
20240618015429 71 143 2.0 7.0 0.00 0.00 0.00 71 1009.4
20240618014928 71 107 3.0 5.0 0.00 0.00 0.00 71 1009.1
20240618014426 73 161 4.0 4.0 0.00 0.00 0.00 69 1009.2
20240618013925 73 294 0.0 1.0 0.00 0.00 0.00 68 1009.2
20240618013424 73 254 0.0 3.0 0.00 0.00 0.00 69 1009.3
20240618012921 71 144 2.0 5.0 0.00 0.00 0.00 70 1009.1
20240618012421 71 109 2.0 4.0 0.00 0.00 0.00 70 1009.1
20240618011918 71 306 0.0 6.0 0.00 0.00 0.00 70 1009.4
20240618011417 73 355 0.0 5.0 0.00 0.00 0.00 68 1009.2
20240618010915 71 161 0.0 7.0 0.00 0.00 0.00 71 1009.2
20240618010413 71 157 0.0 2.0 0.00 0.00 0.00 70 1009.2
20240618005911 72 139 2.0 5.0 0.00 0.00 0.00 68 1009.3
20240618005410 73 206 1.0 5.0 0.00 0.00 0.00 67 1009.0
20240618004909 71 162 3.0 5.0 0.00 0.00 0.00 69 1009.4
20240618004408 72 177 0.0 4.0 0.00 0.00 0.00 67 1009.3
20240618003907 71 177 2.0 7.0 0.00 0.00 0.00 68 1009.4
20240618003406 72 162 1.0 12.0 0.00 0.00 0.00 68 1009.2
20240618002903 73 240 0.0 9.0 0.00 0.00 0.00 66 1009.1
20240618002402 72 126 1.0 4.0 0.00 0.00 0.00 67 1009.2
20240618001901 71 4 0.0 8.0 0.00 0.00 0.00 68 1009.5
20240618001400 71 167 3.0 10.0 0.00 0.00 0.00 68 1009.3